Wetterdaten: aktuell Dienstag, 05.05.2026 21:23
Datum Zeit Temp. A. Feuchte A. Luftdruck Regen Wind Richtung Richtung Taupunkt Windchill
05.05.2026 21:23 16,2 °C 79 % 999,1 hPa 0,0 l/m² 2,7 km/h (1 Bft) O-SO 115 ° 12,6 °C 16,2 °C
05.05.2026 21:21 16,2 °C 80 % 999,1 hPa 0,0 l/m² 2,7 km/h (1 Bft) O-SO 115 ° 12,7 °C 16,2 °C
05.05.2026 21:19 16,2 °C 80 % 999,1 hPa 0,0 l/m² 5,4 km/h (1 Bft) O-SO 115 ° 12,7 °C 16,2 °C
05.05.2026 21:17 16,2 °C 80 % 999,1 hPa 0,0 l/m² 0,9 km/h (0 Bft) O-SO 110 ° 12,7 °C 16,2 °C
05.05.2026 21:15 16,3 °C 80 % 999,1 hPa 0,0 l/m² 0,2 km/h (0 Bft) O-SO 115 ° 12,8 °C 16,3 °C
05.05.2026 21:13 16,3 °C 80 % 999,1 hPa 0,0 l/m² 0,2 km/h (0 Bft) O-SO 115 ° 12,8 °C 16,3 °C
05.05.2026 21:11 16,3 °C 80 % 999,1 hPa 0,0 l/m² 0,2 km/h (0 Bft) O-SO 115 ° 12,8 °C 16,3 °C
05.05.2026 21:09 16,3 °C 80 % 999,1 hPa 0,0 l/m² 0,2 km/h (0 Bft) O-SO 115 ° 12,8 °C 16,3 °C
05.05.2026 21:07 16,3 °C 80 % 999,1 hPa 0,0 l/m² 0,2 km/h (0 Bft) O-SO 115 ° 12,8 °C 16,3 °C
05.05.2026 21:05 16,3 °C 80 % 999,1 hPa 0,0 l/m² 0,0 km/h (0 Bft) O-SO 115 ° 12,8 °C 16,3 °C
05.05.2026 21:03 16,3 °C 80 % 999,1 hPa 0,0 l/m² 0,0 km/h (0 Bft) O-SO 115 ° 12,8 °C 16,3 °C
05.05.2026 21:01 16,4 °C 80 % 999,1 hPa 0,0 l/m² 0,0 km/h (0 Bft) O-SO 115 ° 12,9 °C 16,4 °C
05.05.2026 20:59 16,4 °C 80 % 999,1 hPa 0,0 l/m² 0,0 km/h (0 Bft) O-SO 115 ° 12,9 °C 16,4 °C
05.05.2026 20:57 16,4 °C 80 % 999,1 hPa 0,0 l/m² 4,3 km/h (1 Bft) O-SO±22.5° 115 ° 12,9 °C 16,4 °C
05.05.2026 20:55 16,4 °C 80 % 999,1 hPa 0,0 l/m² 0,0 km/h (0 Bft) SO 145 ° 12,9 °C 16,4 °C
05.05.2026 20:53 16,4 °C 80 % 999,1 hPa 0,0 l/m² 0,0 km/h (0 Bft) SO 145 ° 12,9 °C 16,4 °C
05.05.2026 20:51 16,4 °C 80 % 999,1 hPa 0,0 l/m² 0,0 km/h (0 Bft) SO 145 ° 12,9 °C 16,4 °C
05.05.2026 20:49 16,4 °C 80 % 999,1 hPa 0,0 l/m² 0,0 km/h (0 Bft) SO 145 ° 12,9 °C 16,4 °C
05.05.2026 20:47 16,4 °C 80 % 999,1 hPa 0,0 l/m² 0,0 km/h (0 Bft) SO 145 ° 12,9 °C 16,4 °C
05.05.2026 20:44 16,5 °C 80 % 999,1 hPa 0,0 l/m² 0,0 km/h (0 Bft) SO 145 ° 13,0 °C 16,5 °C
05.05.2026 20:43 16,5 °C 80 % 999,1 hPa 0,0 l/m² 0,0 km/h (0 Bft) SO 145 ° 13,0 °C 16,5 °C
05.05.2026 20:41 16,5 °C 80 % 999,1 hPa 0,0 l/m² 0,0 km/h (0 Bft) SO 145 ° 13,0 °C 16,5 °C
05.05.2026 20:39 16,5 °C 81 % 999,1 hPa 0,0 l/m² 0,3 km/h (0 Bft) SO 145 ° 13,2 °C 16,5 °C
05.05.2026 20:37 16,5 °C 81 % 999,1 hPa 0,0 l/m² 0,3 km/h (0 Bft) SO 145 ° 13,2 °C 16,5 °C
05.05.2026 20:35 16,5 °C 81 % 999,1 hPa 0,0 l/m² 1,8 km/h (1 Bft) SO 145 ° 13,2 °C 16,5 °C
05.05.2026 20:33 16,5 °C 81 % 999,1 hPa 0,0 l/m² 5,1 km/h (1 Bft) SO 145 ° 13,2 °C 16,5 °C
05.05.2026 20:31 16,5 °C 81 % 999,1 hPa 0,0 l/m² 3,9 km/h (1 Bft) SO 145 ° 13,2 °C 16,5 °C
05.05.2026 20:29 16,5 °C 82 % 999,1 hPa 0,0 l/m² 3,9 km/h (1 Bft) SO 145 ° 13,4 °C 16,5 °C
05.05.2026 20:27 16,5 °C 82 % 999,1 hPa 0,0 l/m² 0,0 km/h (0 Bft) SO 145 ° 13,4 °C 16,5 °C
05.05.2026 20:25 16,5 °C 82 % 999,1 hPa 0,0 l/m² 0,0 km/h (0 Bft) SO 145 ° 13,4 °C 16,5 °C
05.05.2026 20:23 16,5 °C 82 % 999,1 hPa 0,0 l/m² 0,0 km/h (0 Bft) SO 145 ° 13,4 °C 16,5 °C
05.05.2026 20:21 16,5 °C 82 % 999,1 hPa 0,0 l/m² 0,1 km/h (0 Bft) SO 145 ° 13,4 °C 16,5 °C
05.05.2026 20:19 16,5 °C 82 % 999,1 hPa 0,0 l/m² 0,7 km/h (0 Bft) SO 145 ° 13,4 °C 16,5 °C
05.05.2026 20:17 16,6 °C 82 % 999,1 hPa 0,0 l/m² 3,0 km/h (1 Bft) SO 145 ° 13,5 °C 16,6 °C
05.05.2026 20:15 16,6 °C 82 % 999,1 hPa 0,0 l/m² 3,0 km/h (1 Bft) SO 145 ° 13,5 °C 16,6 °C
05.05.2026 20:13 16,6 °C 83 % 999,1 hPa 0,0 l/m² 0,1 km/h (0 Bft) SO 145 ° 13,7 °C 16,6 °C
05.05.2026 20:11 16,6 °C 83 % 999,1 hPa 0,0 l/m² 0,0 km/h (0 Bft) SO 145 ° 13,7 °C 16,6 °C
05.05.2026 20:09 16,6 °C 83 % 999,1 hPa 0,0 l/m² 0,0 km/h (0 Bft) SO 145 ° 13,7 °C 16,6 °C
05.05.2026 20:07 16,5 °C 83 % 999,1 hPa 0,0 l/m² 0,0 km/h (0 Bft) SO 145 ° 13,6 °C 16,5 °C
05.05.2026 20:04 16,6 °C 83 % 999,1 hPa 0,0 l/m² 0,0 km/h (0 Bft) SO 145 ° 13,7 °C 16,6 °C
05.05.2026 20:03 16,6 °C 83 % 999,1 hPa 0,0 l/m² 0,0 km/h (0 Bft) SO 145 ° 13,7 °C 16,6 °C
_ Min-Zeit 06:26 14:27 14:57 - 00:05 - - 14:59 06:26
Minimum _ 14,7 °C 33 % 998,8 hPa - 0,0 km/h (0 Bft) - - 4,9 °C 14,7 °C
_ Max-Zeit 12:55 19:17 01:19 16:19 15:51 - - 17:57 12:55
Maximum _ 22,2 °C 85 % 1005,2 hPa 1,1 l/m² 16,9 km/h
S-SO (3 Bft)
- - 14,1 °C 22,2 °C
Durchschnitt _ 17,5 °C 65 % 1001,5 hPa #5,4 l/m² 1,4 km/h (1 Bft) N - 10,1 °C 17,5 °C